Weather History for KFFM - June, 2014

Change the Weather History Date:

Saturday, June 28, 2014

  Actual Average Record
Temperature  
Mean Temperature 73 °F -  
Max Temperature 80 °F 79 °F 96 °F (1970)
Min Temperature 66 °F 58 °F 45 °F (1951)
Cooling Degree Days 8    
Growing Degree Days 23 (Base 50)    
Moisture  
Dew Point 65 °F    
Average Humidity 75    
Maximum Humidity 94    
Minimum Humidity 48    
Precipitation  
Precipitation 0.05 in - - ()
Sea Level Pressure  
Sea Level Pressure 29.55 in    
Wind  
Wind Speed 17 mph (South)    
Max Wind Speed 31 mph    
Max Gust Speed 39 mph    
Visibility 10 miles    
Events Rain , Thunderstorm    
Averages and records for this station are not official NWS values.
T = Trace of Precipitation, MM = Missing Value Source: NWS Daily Summary

Daily Weather History Graph

Daily Weather History Graph

Search for Another Location

Airport or City:

Trip Planner

Search our weather history database for the weather conditions in past years. The results will help you decide how hot, cold, wet, or windy it might be!

Date:

Astronomy

Jun. 28, 2014 Rise Set
Actual Time 5:35 AM CDT 9:20 PM CDT
Civil Twilight 4:56 AM CDT 9:59 PM CDT
Nautical Twilight 4:03 AM CDT 10:51 PM CDT
Astronomical Twilight 2:49 AM CDT 12:05 AM CDT
Moon 7:06 AM CDT (6/28) 9:57 PM CDT (6/28)
Length of Visible Light 17h 03m
Length of Day
15h 45m
New Moon, 2% of the Moon is Illuminated
Jun 28
New Moon
Jul 5
First Quarter
Jul 12
Full
Jul 18
Last Quarter
Jul 26
New

Hourly Weather History & Observations

Time (CDT) Temp. Heat Index Dew Point Humidity Pressure Visibility Wind Dir Wind Speed Gust Speed Precip Events Conditions
12:14 AM 71.6 °F - 66.2 °F 83% 29.61 in 10.0 mi South 16.1 mph - N/A   Overcast
12:34 AM 71.6 °F - 66.2 °F 83% 29.61 in 10.0 mi South 17.3 mph 21.9 mph N/A   Overcast
12:54 AM 71.6 °F - 66.2 °F 83% 29.61 in 10.0 mi South 16.1 mph - N/A   Overcast
1:14 AM 71.6 °F - 66.2 °F 83% 29.60 in 10.0 mi South 16.1 mph - N/A   Mostly Cloudy
1:34 AM 71.6 °F - 66.2 °F 83% 29.60 in 10.0 mi South 15.0 mph 19.6 mph N/A   Scattered Clouds
1:54 AM 71.6 °F - 66.2 °F 83% 29.59 in 10.0 mi South 15.0 mph - N/A   Mostly Cloudy
2:14 AM 71.6 °F - 66.2 °F 83% 29.60 in 10.0 mi South 15.0 mph 19.6 mph N/A   Scattered Clouds
2:34 AM 71.6 °F - 66.2 °F 83% 29.59 in 10.0 mi SSE 12.7 mph 19.6 mph N/A   Scattered Clouds
2:54 AM 71.6 °F - 68.0 °F 88% 29.58 in 10.0 mi SSE 11.5 mph - N/A   Scattered Clouds
3:14 AM 71.6 °F - 68.0 °F 88% 29.58 in 10.0 mi South 12.7 mph - N/A   Scattered Clouds
3:34 AM 71.6 °F - 69.8 °F 94% 29.58 in 7.0 mi South 13.8 mph - 0.02 in Rain Light Rain
3:54 AM 71.6 °F - 69.8 °F 94% 29.58 in 10.0 mi SSE 11.5 mph - 0.02 in Thunderstorm Thunderstorm
4:14 AM 71.6 °F - 69.8 °F 94% 29.58 in 7.0 mi South 13.8 mph - 0.02 in Rain , Thunderstorm Light Thunderstorms and Rain
4:34 AM 71.6 °F - 69.8 °F 94% 29.56 in 10.0 mi SSE 12.7 mph 17.3 mph 0.02 in   Mostly Cloudy
4:54 AM 71.6 °F - 69.8 °F 94% 29.56 in 10.0 mi SSE 11.5 mph - 0.02 in   Scattered Clouds
5:14 AM 71.6 °F - 69.8 °F 94% 29.56 in 10.0 mi SSE 10.4 mph - N/A   Mostly Cloudy
5:34 AM 71.6 °F - 69.8 °F 94% 29.56 in 10.0 mi SSE 12.7 mph - N/A   Mostly Cloudy
5:54 AM 71.6 °F - 69.8 °F 94% 29.57 in 10.0 mi SSE 12.7 mph - N/A   Scattered Clouds
6:14 AM 71.6 °F - 69.8 °F 94% 29.57 in 10.0 mi SSE 16.1 mph 21.9 mph N/A   Mostly Cloudy
6:34 AM 71.6 °F - 69.8 °F 94% 29.59 in 10.0 mi SSE 17.3 mph 21.9 mph N/A   Mostly Cloudy
6:54 AM 73.4 °F - 69.8 °F 88% 29.58 in 10.0 mi SSE 13.8 mph - N/A   Scattered Clouds
7:14 AM 73.4 °F - 68.0 °F 83% 29.58 in 10.0 mi SSE 16.1 mph 20.7 mph N/A   Scattered Clouds
7:34 AM 73.4 °F - 69.8 °F 88% 29.58 in 10.0 mi SSE 15.0 mph 20.7 mph N/A   Scattered Clouds
7:53 AM 73.4 °F - 69.8 °F 88% 29.58 in 10.0 mi SSE 18.4 mph 25.3 mph N/A   Mostly Cloudy
8:14 AM 73.4 °F - 69.8 °F 88% 29.56 in 10.0 mi SSE 16.1 mph 25.3 mph N/A   Mostly Cloudy
8:34 AM 73.4 °F - 69.8 °F 88% 29.57 in 10.0 mi SSE 18.4 mph - N/A   Overcast
8:54 AM 73.4 °F - 68.0 °F 83% 29.56 in 10.0 mi SSE 21.9 mph - N/A   Overcast
9:14 AM 73.4 °F - 68.0 °F 83% 29.56 in 10.0 mi South 18.4 mph 24.2 mph N/A   Overcast
9:34 AM 73.4 °F - 68.0 °F 83% 29.56 in 10.0 mi South 18.4 mph 25.3 mph N/A   Overcast
9:54 AM 73.4 °F - 66.2 °F 78% 29.55 in 10.0 mi SSE 20.7 mph 28.8 mph N/A   Overcast
10:14 AM 73.4 °F - 66.2 °F 78% 29.55 in 10.0 mi SSE 21.9 mph 29.9 mph N/A   Overcast
10:34 AM 73.4 °F - 66.2 °F 78% 29.55 in 10.0 mi SSE 20.7 mph 25.3 mph N/A   Overcast
10:54 AM 73.4 °F - 68.0 °F 83% 29.54 in 7.0 mi SSE 23.0 mph 27.6 mph N/A   Overcast
11:14 AM 71.6 °F - 69.8 °F 94% 29.54 in 3.0 mi SSE 20.7 mph 27.6 mph N/A   Overcast
11:34 AM 75.2 °F - 71.6 °F 89% 29.54 in 10.0 mi SSE 25.3 mph 31.1 mph N/A   Scattered Clouds
11:54 AM 77.0 °F - 68.0 °F 74% 29.53 in 10.0 mi SSE 25.3 mph 31.1 mph N/A   Scattered Clouds
12:14 PM 78.8 °F - 69.8 °F 74% 29.53 in 10.0 mi South 25.3 mph 35.7 mph N/A   Scattered Clouds
12:34 PM 78.8 °F - 66.2 °F 65% 29.53 in 10.0 mi South 29.9 mph 35.7 mph N/A   Scattered Clouds
12:53 PM 78.8 °F - 64.4 °F 61% 29.52 in 10.0 mi South 24.2 mph 38.0 mph N/A   Scattered Clouds
1:14 PM 77.0 °F - 64.4 °F 65% 29.53 in 10.0 mi South 28.8 mph 33.4 mph 0.01 in   Scattered Clouds
1:34 PM 78.8 °F - 62.6 °F 57% 29.52 in 10.0 mi South 24.2 mph 33.4 mph 0.01 in   Clear
1:53 PM 78.8 °F - 60.8 °F 54% 29.52 in 10.0 mi SSW 24.2 mph 35.7 mph 0.01 in   Clear
2:14 PM 80.6 °F 81.5 °F 60.8 °F 51% 29.52 in 10.0 mi South 26.5 mph 39.1 mph N/A   Clear
2:34 PM 80.6 °F 81.5 °F 60.8 °F 51% 29.51 in 10.0 mi SSW 31.1 mph 38.0 mph N/A   Clear
2:53 PM 78.8 °F - 60.8 °F 54% 29.51 in 10.0 mi SSW 21.9 mph 34.5 mph N/A   Scattered Clouds
3:34 PM 80.6 °F 81.5 °F 60.8 °F 51% 29.51 in 10.0 mi SSW 23.0 mph 28.8 mph N/A   Scattered Clouds
3:53 PM 78.8 °F - 59.0 °F 51% 29.51 in 10.0 mi SSW 26.5 mph 32.2 mph N/A   Mostly Cloudy
4:14 PM 78.8 °F - 60.8 °F 54% 29.50 in 10.0 mi South 20.7 mph 28.8 mph N/A   Mostly Cloudy
4:34 PM 78.8 °F - 60.8 °F 54% 29.50 in 10.0 mi South 23.0 mph 28.8 mph N/A   Mostly Cloudy
4:53 PM 78.8 °F - 60.8 °F 54% 29.49 in 10.0 mi South 19.6 mph - N/A   Mostly Cloudy
5:14 PM 80.6 °F 81.1 °F 59.0 °F 48% 29.49 in 10.0 mi South 23.0 mph 27.6 mph N/A   Scattered Clouds
5:34 PM 80.6 °F 81.5 °F 60.8 °F 51% 29.49 in 10.0 mi SSW 18.4 mph 23.0 mph N/A   Scattered Clouds
5:54 PM 80.6 °F 81.5 °F 60.8 °F 51% 29.49 in 10.0 mi SSW 17.3 mph 28.8 mph N/A   Mostly Cloudy
6:14 PM 78.8 °F - 59.0 °F 51% 29.49 in 10.0 mi SSW 23.0 mph 28.8 mph N/A   Scattered Clouds
6:34 PM 80.6 °F 81.1 °F 59.0 °F 48% 29.48 in 10.0 mi SSW 24.2 mph 29.9 mph N/A   Scattered Clouds
6:54 PM 78.8 °F - 60.8 °F 54% 29.48 in 10.0 mi South 17.3 mph 27.6 mph N/A   Scattered Clouds
7:14 PM 73.4 °F - 62.6 °F 69% 29.49 in 10.0 mi SW 21.9 mph 34.5 mph N/A   Mostly Cloudy
7:34 PM 73.4 °F - 62.6 °F 69% 29.51 in 10.0 mi SW 12.7 mph 19.6 mph N/A   Scattered Clouds
7:54 PM 71.6 °F - 62.6 °F 73% 29.51 in 10.0 mi SW 12.7 mph - N/A   Clear
8:14 PM 71.6 °F - 62.6 °F 73% 29.51 in 10.0 mi SW 15.0 mph - N/A   Clear
8:34 PM 71.6 °F - 60.8 °F 69% 29.53 in 10.0 mi SW 12.7 mph - N/A   Scattered Clouds
8:54 PM 71.6 °F - 60.8 °F 69% 29.53 in 10.0 mi SW 13.8 mph 17.3 mph N/A   Scattered Clouds
9:14 PM 71.6 °F - 60.8 °F 69% 29.53 in 10.0 mi SW 13.8 mph 20.7 mph N/A   Mostly Cloudy
9:34 PM 69.8 °F - 60.8 °F 73% 29.54 in 10.0 mi SW 12.7 mph 18.4 mph N/A   Scattered Clouds
9:54 PM 68.0 °F - 60.8 °F 78% 29.55 in 10.0 mi SW 8.1 mph - N/A   Scattered Clouds
10:14 PM 68.0 °F - 59.0 °F 73% 29.56 in 10.0 mi WSW 9.2 mph - N/A   Clear
10:34 PM 66.2 °F - 57.2 °F 73% 29.57 in 10.0 mi SW 8.1 mph - N/A   Clear
10:54 PM 66.2 °F - 59.0 °F 78% 29.57 in 10.0 mi SW 8.1 mph - N/A   Clear
11:14 PM 66.2 °F - 60.8 °F 83% 29.58 in 10.0 mi SSW 8.1 mph - N/A   Clear
11:34 PM 66.2 °F - 60.8 °F 83% 29.58 in 10.0 mi SSW 8.1 mph - N/A   Clear
11:54 PM 66.2 °F - 60.8 °F 83% 29.59 in 10.0 mi SSW 9.2 mph - N/A   Clear